This is the latest recevied weather packets stored in our database for station/object W9GWP. If no packets are shown the sender has not sent any weather packets the latest 10 day(s).
| Time | Temp. | Humidity | Pressure | Rain* | Wind** | Luminosity | Snow |
|---|---|---|---|---|---|---|---|
| 1778139584 | 0.56° C | 84% | 1044.2 hPa | 0 mm | - | 0 W/m² | - |
| 1778138680 | 1.11° C | 83% | 1044.4 hPa | 0 mm | - | 0 W/m² | - |
| 1778137776 | 1.67° C | 82% | 1044.5 hPa | 0 mm | - | 0 W/m² | - |
| 1778136873 | 1.67° C | 80% | 1044.3 hPa | 0 mm | - | 0 W/m² | - |
| 1778135972 | 2.22° C | 78% | 1044.7 hPa | 0 mm | - | 0 W/m² | - |
| 1778135069 | 2.78° C | 75% | 1044.5 hPa | 0 mm | - | 0 W/m² | - |
| 1778134168 | 3.33° C | 74% | 1044.4 hPa | 0 mm | - | 0 W/m² | - |
| 1778133268 | 2.78° C | 76% | 1044.6 hPa | 0 mm | - | 0 W/m² | - |
| 1778132365 | 2.78° C | 75% | 1044.7 hPa | 0 mm | - | 0 W/m² | - |
| 1778131464 | 3.33° C | 73% | 1044.6 hPa | 0 mm | - | 0 W/m² | - |
| 1778130561 | 3.33° C | 71% | 1044.7 hPa | 0 mm | - | 0 W/m² | - |
| 1778129657 | 3.89° C | 69% | 1044.7 hPa | 0 mm | - | 0 W/m² | - |
| 1778128752 | 4.44° C | 66% | 1044.8 hPa | 0 mm | - | 0 W/m² | - |
| 1778127853 | 5° C | 62% | 1044.8 hPa | 0 mm | - | 0 W/m² | - |
| 1778126948 | 5.56° C | 62% | 1044.4 hPa | 0 mm | - | 0 W/m² | - |
| 1778126047 | 6.11° C | 59% | 1044.8 hPa | 0 mm | - | 0 W/m² | - |
| 1778125145 | 6.11° C | 58% | 1044.6 hPa | 0 mm | - | 0 W/m² | - |
| 1778124242 | 6.67° C | 57% | 1044.7 hPa | 0 mm | - | 0 W/m² | - |
| 1778123343 | 6.67° C | 56% | 1044.7 hPa | 0 mm | - | 0 W/m² | - |
| 1778122440 | 7.22° C | 54% | 1044.8 hPa | 0 mm | - | 0 W/m² | - |
| 1778121537 | 7.22° C | 53% | 1044.6 hPa | 0 mm | - | 0 W/m² | - |
| 1778120633 | 7.78° C | 53% | 1044.4 hPa | 0 mm | - | 0 W/m² | - |
| 1778119729 | 7.78° C | 51% | 1044.2 hPa | 0 mm | - | 0 W/m² | - |
| 1778118826 | 7.78° C | 51% | 1044.2 hPa | 0 mm | - | 0 W/m² | - |
| 1778117927 | 8.33° C | 50% | 1044 hPa | 0 mm | - | 0 W/m² | - |
* Rain latest hour (hover to see other rain measurements)
** Current wind speed in m/s (hover to see current wind gust speed)